Location: Baia Mare
(47.6567°N, 23.5850°E)
Time: 13:29:27
(UTC+02:00)

ISS - Pass Details

Date: 06 December 2018
Orbit: 401 x 408 km, 51.6° (Epoch: 16 December)

Event Time Altitude Azimuth Distance (km) Brightness Sun altitude
Rises 17:08:18 0° 279° (W) 2,318 1.0 -5.8°
Reaches altitude 10° 17:10:28 10° 287° (WNW) 1,458 -0.3 -6.1°
Maximum altitude 17:13:34 39° 358° (N) 624 -3.1 -6.5°
Drops below altitude 10° 17:16:39 10° 70° (ENE) 1,456 -1.7 -7.0°
Enters shadow 17:16:49 - 70° (ENE) 1,519 -1.6 -7.0°
